Location: B�rgermoos
(47.6500°N, 9.0667°E)
Time: 18:35:16
(UTC+00:00)

Tiros 1 - Pass Details

Date: 13 August 2021
Orbit: 630 x 663 km, 48.4° (Epoch: 20 September)

Event Time Altitude Azimuth Distance (km) Brightness Sun altitude
Rises 11:21:51 0° 187° (S) 2,977 11.1 56.8°
Reaches altitude 10° 11:25:33 10° 157° (SSE) 2,073 10.4 56.9°
Maximum altitude 11:27:28 12° 134° (SE) 1,924 10.1 56.9°
Drops below altitude 10° 11:29:23 10° 110° (ESE) 2,079 10.0 56.9°
Sets 11:33:07 0° 81° (E) 2,995 10.5 56.8°
